This is the latest recevied weather packets stored in our database for station/object NC4M. If no packets are shown the sender has not sent any weather packets the latest 10 day(s).
| Time | Temp. | Humidity | Pressure | Rain* | Wind** | Luminosity | Snow |
|---|---|---|---|---|---|---|---|
| 1788149164 | 23.89° C | 62% | 1016.6 hPa | 0 mm | - | 0 W/m² | - |
| 1788148864 | 23.89° C | 65% | 1016.6 hPa | 0 mm | - | 0 W/m² | - |
| 1788148562 | 23.89° C | 65% | 1016.6 hPa | 0 mm | - | 0 W/m² | - |
| 1788148257 | 23.89° C | 63% | 1016.4 hPa | 0 mm | - | 0 W/m² | - |
| 1788147956 | 23.89° C | 66% | 1016.5 hPa | 0 mm | - | 0 W/m² | - |
| 1788147652 | 23.89° C | 64% | 1016.5 hPa | 0 mm | - | 0 W/m² | - |
| 1788147347 | 23.89° C | 68% | 1016.4 hPa | 0 mm | - | 0 W/m² | - |
| 1788147042 | 23.89° C | 70% | 1016.4 hPa | 0 mm | - | 0 W/m² | - |
| 1788146741 | 23.33° C | 69% | 1016.3 hPa | 0 mm | - | 0 W/m² | - |
| 1788146437 | 23.33° C | 71% | 1016.4 hPa | 0 mm | - | 0 W/m² | - |
| 1788146137 | 23.33° C | 72% | 1016.4 hPa | 0 mm | - | 0 W/m² | - |
| 1788145836 | 23.89° C | 70% | 1016.2 hPa | 0 mm | - | 0 W/m² | - |
| 1788145535 | 23.89° C | 69% | 1016.4 hPa | 0 mm | - | 0 W/m² | - |
| 1788145235 | 23.89° C | 71% | 1016.2 hPa | 0 mm | - | 0 W/m² | - |
| 1788144933 | 23.89° C | 71% | 1016.5 hPa | 0 mm | - | 0 W/m² | - |
| 1788144629 | 23.89° C | 70% | 1016.3 hPa | 0 mm | - | 0 W/m² | - |
| 1788144325 | 23.89° C | 72% | 1016.3 hPa | 0 mm | - | 0 W/m² | - |
| 1788144024 | 23.89° C | 72% | 1016.4 hPa | 0 mm | - | 0 W/m² | - |
| 1788143722 | 23.89° C | 73% | 1016.3 hPa | 0 mm | - | 0 W/m² | - |
| 1788143422 | 23.89° C | 74% | 1016.1 hPa | 0 mm | - | 0 W/m² | - |
| 1788143121 | 23.89° C | 74% | 1016.2 hPa | 0 mm | - | 0 W/m² | - |
| 1788142817 | 23.89° C | 77% | 1016 hPa | 0 mm | - | 0 W/m² | - |
| 1788142515 | 23.89° C | 78% | 1015.9 hPa | 0 mm | - | 0 W/m² | - |
| 1788142212 | 23.89° C | 76% | 1015.9 hPa | 0 mm | - | 0 W/m² | - |
| 1788141907 | 23.89° C | 80% | 1016 hPa | 0 mm | - | 0 W/m² | - |
* Rain latest hour (hover to see other rain measurements)
** Current wind speed in m/s (hover to see current wind gust speed)